GW1243 Weather Reports


time (UTC)temp
F
wind
direction
speed
knots
gust
knots
rain 1hr
in
rain 24hr
in
rain mn
in
humidity
%
barometer
mb
20260504050521 54 315 9.6 18.2 0.00 0.00 0.00 85 1010.6
20260504045517 54 323 9.6 18.2 0.00 0.00 0.00 85 1010.4
20260504045020 54 342 8.7 19.1 0.00 0.00 0.00 84 1010.3
20260504044539 54 342 9.6 20.0 0.00 0.00 0.00 84 1010.4
20260504044020 54 309 12.2 20.0 0.00 0.00 0.00 83 1010.5
20260504043520 54 328 11.3 19.1 0.00 0.00 0.00 83 1010.4
20260504043035 54 306 11.3 19.1 0.00 0.00 0.00 83 1010.4
20260504042518 54 340 9.6 25.2 0.00 0.00 0.00 82 1010.3
20260504042022 54 333 13.9 25.2 0.00 0.00 0.00 81 1010.3
20260504041542 54 329 11.3 20.9 0.00 0.00 0.00 82 1010.3
20260504041019 54 355 8.7 20.0 0.00 0.00 0.00 82 1010.3
20260504040516 54 302 11.3 20.0 0.00 0.00 0.00 83 1010.2
20260504040058 54 338 11.3 20.0 0.00 0.00 0.00 84 1010.3
20260504035518 53 312 10.4 20.9 0.00 0.06 0.00 84 1010.3
20260504035017 53 304 9.6 20.9 0.00 0.06 0.00 84 1010.4
20260504034532 54 335 9.6 21.7 0.00 0.06 0.00 84 1010.4
20260504034017 54 335 11.3 21.7 0.00 0.06 0.00 84 1010.6
20260504033517 53 317 8.7 18.2 0.00 0.06 0.00 85 1010.6
20260504033037 53 333 7.8 18.2 0.00 0.06 0.00 85 1010.6
20260504032517 53 302 8.7 18.2 0.00 0.06 0.00 85 1010.7
20260504032017 53 308 7.8 18.2 0.00 0.06 0.00 84 1010.8
20260504031537 53 338 7.0 16.5 0.00 0.06 0.00 84 1010.8
20260504031016 53 310 7.8 18.2 0.00 0.06 0.00 83 1011.0
20260504030516 53 331 8.7 18.2 0.00 0.06 0.00 83 1010.9
20260504030034 53 295 11.3 18.2 0.00 0.06 0.00 83 1011.1
20260504025521 53 294 9.6 18.2 0.00 0.09 0.00 82 1011.1
20260504025018 53 293 8.7 18.2 0.00 0.09 0.00 82 1011.1
20260504024536 53 336 11.3 18.2 0.00 0.09 0.00 82 1011.2
20260504024018 53 338 7.0 22.6 0.00 0.09 0.00 82 1011.2
20260504023518 53 316 10.4 22.6 0.00 0.09 0.00 82 1011.3
20260504023037 53 314 8.7 16.5 0.00 0.09 0.00 82 1011.4
20260504022516 53 339 9.6 18.2 0.00 0.09 0.00 81 1011.4
20260504022017 53 293 10.4 18.2 0.00 0.09 0.00 81 1011.5
20260504021536 54 317 11.3 18.2 0.00 0.09 0.00 80 1011.4
20260504021021 54 322 9.6 20.0 0.00 0.09 0.00 80 1011.5
20260504020517 54 267 10.4 20.0 0.00 0.09 0.00 79 1011.5
20260504020032 54 334 9.6 21.7 0.00 0.09 0.00 78 1011.6
20260504015517 54 325 11.3 21.7 0.00 0.11 0.00 78 1011.6
20260504015017 55 302 9.6 18.2 0.00 0.11 0.00 77 1011.7
20260504014532 55 320 9.6 23.5 0.00 0.11 0.00 77 1011.8
20260504014016 55 329 11.3 23.5 0.00 0.11 0.00 78 1011.8
20260504013517 55 288 8.7 20.9 0.00 0.11 0.00 78 1011.9
20260504013038 55 330 13.0 22.6 0.00 0.11 0.00 79 1011.9
20260504012517 54 314 13.0 22.6 0.00 0.11 0.00 80 1011.9
20260504012017 54 327 12.2 22.6 0.00 0.11 0.00 81 1012.0
20260504011538 54 338 10.4 17.4 0.00 0.11 0.00 83 1011.9
20260504011018 53 340 9.6 21.7 0.00 0.11 0.00 83 1011.9
20260504010518 53 277 11.3 21.7 0.00 0.11 0.00 83 1012.0
20260504010037 53 336 11.3 20.9 0.00 0.11 0.00 84 1012.0
20260504005517 53 335 10.4 18.2 0.00 0.14 0.00 86 1012.1
20260504005040 53 324 8.7 18.2 0.00 0.14 0.00 87 1011.9
20260504004544 52 346 8.7 18.2 0.00 0.14 0.00 87 1011.9
20260504004020 52 317 10.4 18.2 0.00 0.14 0.00 88 1012.0
20260504003524 52 315 11.3 20.0 0.00 0.14 0.00 88 1012.0
20260504003047 51 315 10.4 20.0 0.00 0.14 0.00 89 1012.0
20260504002520 51 322 8.7 14.8 0.00 0.14 0.00 89 1012.0
20260504002020 51 317 9.6 14.8 0.00 0.14 0.00 90 1012.1
20260504001546 51 327 7.8 14.8 0.00 0.14 0.00 90 1012.1
20260504001020 51 342 11.3 14.8 0.00 0.14 0.00 91 1012.1
20260504000517 51 5 9.6 15.6 0.00 0.14 0.00 91 1012.1
20260504000037 50 344 9.6 15.6 0.00 0.14 0.00 92 1012.0
20260503235521 50 340 8.7 16.5 0.00 0.26 0.00 92 1012.1
20260503235019 49 26 7.8 16.5 0.00 0.26 0.00 92 1012.1
20260503234542 49 15 7.8 13.9 0.00 0.26 0.00 92 1012.3
20260503234020 49 343 7.8 13.9 0.00 0.26 0.00 92 1012.3
20260503233520 49 336 8.7 13.0 0.00 0.26 0.00 92 1012.4
20260503233041 49 321 6.1 13.0 0.00 0.26 0.00 92 1012.5
20260503232520 49 324 8.7 13.9 0.00 0.26 0.00 92 1012.4
20260503232021 48 304 5.2 13.9 0.00 0.26 0.00 93 1012.3
20260503231541 48 323 7.8 15.6 0.00 0.26 0.00 92 1012.4
20260503231021 48 346 7.8 15.6 0.00 0.26 0.00 93 1012.4
20260503230521 48 360 7.8 15.6 0.00 0.26 0.00 93 1012.4
20260503230040 48 355 8.7 15.6 0.00 0.26 0.00 93 1012.3
20260503225517 48 360 7.0 14.8 0.00 0.38 0.00 93 1012.4
20260503225021 47 316 7.0 13.9 0.00 0.38 0.00 93 1012.4
20260503224538 47 355 7.0 13.9 0.00 0.38 0.00 93 1012.3
20260503224017 47 324 7.0 14.8 0.00 0.38 0.00 93 1012.3
20260503223524 47 355 6.1 14.8 0.00 0.38 0.00 93 1012.4
20260503223042 47 300 7.0 12.2 0.00 0.38 0.00 93 1012.3
20260503222520 47 284 6.1 12.2 0.00 0.38 0.00 93 1012.3
20260503222020 47 323 6.1 13.9 0.00 0.38 0.00 93 1012.2
20260503221539 47 360 6.1 14.8 0.00 0.38 0.00 93 1012.1
20260503221020 47 298 7.8 14.8 0.00 0.38 0.00 93 1012.1
20260503220523 47 324 8.7 14.8 0.00 0.38 0.00 93 1012.1
20260503220039 47 331 7.0 14.8 0.00 0.38 0.00 92 1012.1
20260503215520 47 322 7.8 14.8 0.00 0.40 0.00 92 1012.1
20260503215020 47 317 7.0 13.0 0.00 0.40 0.00 92 1012.0
20260503214536 47 339 7.0 13.9 0.00 0.40 0.00 92 1012.0
20260503214017 47 342 7.8 13.9 0.00 0.40 0.00 92 1012.0
20260503213517 47 344 7.0 13.9 0.00 0.40 0.00 92 1012.1
20260503213033 47 328 8.7 13.9 0.00 0.40 0.00 92 1011.9
20260503212517 47 13 8.7 13.0 0.00 0.40 0.00 92 1011.9
20260503212018 47 355 7.0 12.2 0.00 0.40 0.00 92 1012.0
20260503211541 47 340 7.0 13.9 0.00 0.40 0.00 92 1012.0
20260503211025 47 321 7.0 13.9 0.00 0.40 0.00 92 1011.9
20260503210517 47 327 7.0 13.9 0.00 0.40 0.00 92 1011.9
20260503210037 47 323 7.0 13.9 0.00 0.40 0.00 92 1012.0
20260503205519 47 350 8.7 13.9 0.00 0.41 0.00 92 1011.9
20260503205016 47 340 7.0 13.0 0.00 0.41 0.00 92 1011.9
20260503204540 47 340 7.0 13.0 0.00 0.41 0.00 92 1011.9
20260503204021 47 319 7.0 13.0 0.00 0.41 0.00 92 1011.8
20260503203520 47 321 6.1 11.3 0.00 0.41 0.00 92 1011.6
20260503203035 47 13 7.0 11.3 0.00 0.41 0.00 91 1011.6
20260503202517 47 301 6.1 13.0 0.00 0.41 0.00 91 1011.6
20260503202017 47 329 7.0 13.0 0.00 0.41 0.00 92 1011.6
20260503201535 47 344 6.1 11.3 0.00 0.41 0.00 92 1011.6
20260503201016 47 288 7.0 11.3 0.00 0.41 0.00 92 1011.5
20260503200516 47 342 6.1 11.3 0.00 0.41 0.00 92 1011.6
20260503200038 47 332 6.1 11.3 0.00 0.41 0.00 92 1011.6
20260503195516 47 5 7.0 12.2 0.00 0.51 0.00 92 1011.6
20260503195016 47 349 6.1 12.2 0.00 0.51 0.00 92 1011.6
20260503194538 47 347 7.8 12.2 0.00 0.51 0.00 92 1011.5
20260503194016 47 349 7.8 12.2 0.00 0.51 0.00 92 1011.5
20260503193521 47 9 7.0 13.0 0.00 0.51 0.00 92 1011.4
20260503193043 47 342 6.1 13.0 0.00 0.51 0.00 92 1011.5
20260503192517 47 346 6.1 9.6 0.00 0.51 0.00 92 1011.3
20260503192019 47 348 5.2 11.3 0.00 0.51 0.00 93 1011.4
20260503191536 47 350 5.2 13.0 0.00 0.51 0.00 93 1011.3
20260503191021 47 311 6.1 13.0 0.00 0.51 0.00 93 1011.4
20260503190517 47 331 7.0 12.2 0.00 0.51 0.00 93 1011.5
20260503190033 47 328 7.8 12.2 0.00 0.51 0.00 93 1011.5
20260503185516 47 11 7.0 12.2 0.00 0.51 0.00 93 1011.6
20260503185017 47 334 7.0 12.2 0.00 0.51 0.00 93 1011.6
20260503184534 47 342 7.0 10.4 0.00 0.51 0.00 93 1011.6
20260503184019 47 355 6.1 11.3 0.00 0.51 0.00 94 1011.7
20260503183516 47 360 7.0 11.3 0.00 0.51 0.00 94 1011.7
20260503183050 47 355 6.1 12.2 0.00 0.51 0.00 94 1011.8
20260503182516 47 342 7.0 12.2 0.00 0.51 0.00 94 1011.7
20260503182018 47 335 7.8 12.2 0.00 0.51 0.00 94 1011.8
20260503181535 47 351 6.1 12.2 0.00 0.51 0.00 94 1011.8
20260503181017 47 334 7.0 12.2 0.00 0.51 0.00 94 1011.9
20260503180517 47 325 6.1 12.2 0.00 0.51 0.00 94 1011.9
20260503180038 47 351 7.0 13.0 0.00 0.51 0.00 94 1011.9
20260503175016 47 323 6.1 12.2 0.00 0.55 0.00 94 1011.9
20260503174537 47 328 6.1 12.2 0.00 0.55 0.00 94 1011.9
20260503174016 47 300 6.1 11.3 0.00 0.55 0.00 94 1012.1
20260503173516 47 347 6.1 12.2 0.00 0.55 0.00 94 1012.1
20260503173038 47 343 6.1 12.2 0.00 0.55 0.00 94 1012.1
20260503172516 48 327 6.1 12.2 0.00 0.55 0.00 94 1012.2
20260503172017 48 323 7.8 13.0 0.00 0.55 0.00 94 1012.3
20260503171532 48 335 7.8 13.0 0.00 0.55 0.00 94 1012.2
20260503171017 48 344 7.0 13.0 0.00 0.55 0.00 94 1012.3
20260503170517 48 323 7.8 13.0 0.00 0.55 0.00 94 1012.3
20260503150520 49 344 3.5 8.7 0.00 0.57 0.00 94 1012.9
20260503131024 49 338 7.0 12.2 0.00 0.57 0.57 93 1013.4
20260503130520 50 333 6.1 12.2 0.00 0.57 0.57 93 1013.5
20260503110519 51 341 6.1 12.2 0.00 0.60 0.57 93 1014.1
20260503081535 52 355 5.2 9.6 0.00 0.60 0.57 89 1012.6
20260503081016 52 338 4.3 7.8 0.00 0.60 0.57 88 1012.5
20260503080516 52 355 4.3 8.7 0.00 0.60 0.57 88 1012.4
20260503072519 54 315 3.5 8.7 0.00 0.60 0.57 85 1012.0
20260503072019 54 325 3.5 7.8 0.00 0.60 0.57 85 1012.0
20260503071537 54 325 2.6 8.7 0.00 0.60 0.57 85 1012.1
20260503071018 55 307 3.5 10.4 0.00 0.60 0.57 85 1012.2
20260503070517 55 297 5.2 10.4 0.00 0.60 0.57 84 1012.2
20260503055018 54 302 9.6 13.0 0.00 0.60 0.57 91 1012.2
20260503054540 54 300 7.8 13.0 0.00 0.60 0.57 93 1012.1
20260503054016 53 268 5.2 13.9 0.00 0.60 0.57 93 1012.1
20260503053519 53 288 7.8 13.9 0.00 0.60 0.57 93 1012.1
20260503053033 53 285 6.1 11.3 0.00 0.60 0.57 94 1012.2
20260503052519 53 282 7.8 11.3 0.00 0.60 0.57 94 1012.1
20260503052018 53 309 6.1 9.6 0.00 0.60 0.57 94 1012.2